Change the Weather History Date:

Tuesday, September 10, 2013

  Actual Average (KHAI) Record (KHAI)
Temperature  
Mean Temperature 82 °F -  
Max Temperature 93 °F 78 °F 96 °F (1983)
Min Temperature 71 °F 53 °F 36 °F (1969)
Cooling Degree Days 17    
Growing Degree Days 32 (Base 50)    
Moisture  
Dew Point 67 °F    
Average Humidity 63    
Maximum Humidity 94    
Minimum Humidity 34    
Precipitation  
Precipitation 0.00 in - - ()
Sea Level Pressure  
Sea Level Pressure 30.00 in    
Wind  
Wind Speed 8 mph (SW)    
Max Wind Speed 16 mph    
Max Gust Speed 23 mph    
Visibility 9 miles    
Events      
Averages and records for this station are not official NWS values.
T = Trace of Precipitation, MM = Missing Value Source: NWS Daily Summary

Daily Weather History Graph

Daily Weather History Graph

Search for Another Location

Airport or City:

Trip Planner

Search our weather history database for the weather conditions in past years. The results will help you decide how hot, cold, wet, or windy it might be!

Date:

Astronomy

Sep. 10, 2013 Rise Set
Actual Time 7:17 AM EDT 7:59 PM EDT
Civil Twilight 6:48 AM EDT 8:27 PM EDT
Nautical Twilight 6:15 AM EDT 9:00 PM EDT
Astronomical Twilight 5:41 AM EDT 9:35 PM EDT
Moon 12:47 PM EDT (9/10) 10:56 PM EDT (9/10)
Length of Visible Light 13h 38m
Length of Day
12h 42m
Waxing Crescent, 28% of the Moon is Illuminated
Sep 10
Waxing Crescent
Sep 12
First Quarter
Sep 19
Full
Sep 26
Last Quarter
Oct 4
New

Hourly Weather History & Observations

Time (EDT) Temp. Heat Index Dew Point Humidity Pressure Visibility Wind Dir Wind Speed Gust Speed Precip Events Conditions
12:15 AM 78.8 °F - 71.6 °F 78% 29.92 in 10.0 mi SW 9.2 mph - N/A   Clear
12:35 AM 78.8 °F - 71.6 °F 78% 29.92 in 10.0 mi SW 8.1 mph - N/A   Clear
12:54 AM 78.8 °F - 71.6 °F 78% 29.92 in 10.0 mi SW 8.1 mph - N/A   Clear
1:15 AM 78.8 °F - 71.6 °F 78% 29.93 in 10.0 mi SW 8.1 mph - N/A   Clear
1:35 AM 78.8 °F - 71.6 °F 78% 29.93 in 10.0 mi SW 9.2 mph - N/A   Clear
1:54 AM 78.8 °F - 71.6 °F 78% 29.93 in 10.0 mi SW 9.2 mph - N/A   Clear
2:15 AM 77.0 °F - 71.6 °F 83% 29.94 in 10.0 mi SW 8.1 mph - N/A   Clear
2:35 AM 77.0 °F - 71.6 °F 83% 29.94 in 10.0 mi SW 6.9 mph - N/A   Clear
2:54 AM 77.0 °F - 71.6 °F 83% 29.94 in 10.0 mi SW 8.1 mph - N/A   Clear
3:15 AM 75.2 °F - 71.6 °F 89% 29.95 in 10.0 mi SW 6.9 mph - N/A   Clear
3:34 AM 75.2 °F - 71.6 °F 89% 29.95 in 10.0 mi SW 6.9 mph - N/A   Clear
3:55 AM 75.2 °F - 71.6 °F 89% 29.96 in 10.0 mi SW 6.9 mph - N/A   Clear
4:15 AM 75.2 °F - 71.6 °F 89% 29.96 in 10.0 mi SW 5.8 mph - N/A   Clear
4:34 AM 75.2 °F - 71.6 °F 89% 29.96 in 10.0 mi SW 6.9 mph - N/A   Clear
4:55 AM 75.2 °F - 71.6 °F 89% 29.97 in 7.0 mi SW 8.1 mph - N/A   Clear
5:14 AM 73.4 °F - 71.6 °F 94% 29.97 in 7.0 mi SW 6.9 mph - N/A   Clear
5:34 AM 73.4 °F - 71.6 °F 94% 29.98 in 7.0 mi WSW 5.8 mph - N/A   Clear
5:55 AM 73.4 °F - 71.6 °F 94% 29.98 in 7.0 mi SW 4.6 mph - N/A   Clear
6:15 AM 73.4 °F - 69.8 °F 88% 29.98 in 7.0 mi SW 5.8 mph - N/A   Clear
6:34 AM 73.4 °F - 69.8 °F 88% 29.99 in 7.0 mi SW 5.8 mph - N/A   Clear
6:55 AM 73.4 °F - 69.8 °F 88% 29.99 in 7.0 mi SW 5.8 mph - N/A   Clear
7:14 AM 73.4 °F - 69.8 °F 88% 30.00 in 7.0 mi SW 4.6 mph - N/A   Clear
7:35 AM 71.6 °F - 69.8 °F 94% 30.00 in 7.0 mi SW 4.6 mph - N/A   Clear
7:55 AM 73.4 °F - 69.8 °F 88% 30.01 in 5.0 mi SW 4.6 mph - N/A   Clear
8:14 AM 73.4 °F - 71.6 °F 94% 30.01 in 7.0 mi SW 5.8 mph - N/A   Clear
8:35 AM 75.2 °F - 71.6 °F 89% 30.02 in 7.0 mi SSW 8.1 mph - N/A   Clear
8:55 AM 75.2 °F - 71.6 °F 89% 30.02 in 7.0 mi SW 9.2 mph - N/A   Clear
9:15 AM 77.0 °F - 71.6 °F 83% 30.02 in 7.0 mi SW 10.4 mph - N/A   Clear
9:35 AM 78.8 °F - 71.6 °F 78% 30.03 in 10.0 mi WSW 9.2 mph - N/A   Clear
9:54 AM 80.6 °F 84.6 °F 71.6 °F 74% 30.03 in 10.0 mi WSW 10.4 mph - N/A   Clear
10:15 AM 80.6 °F 83.9 °F 69.8 °F 70% 30.04 in 10.0 mi WSW 10.4 mph - N/A   Clear
10:35 AM 82.4 °F 86.3 °F 69.8 °F 66% 30.04 in 10.0 mi WSW 10.4 mph 16.1 mph N/A   Clear
10:54 AM 84.2 °F 88.4 °F 69.8 °F 62% 30.04 in 10.0 mi West 8.1 mph - N/A   Clear
11:15 AM 84.2 °F 87.3 °F 68.0 °F 58% 30.04 in 10.0 mi West 8.1 mph - N/A   Clear
11:35 AM 87.8 °F 90.4 °F 66.2 °F 49% 30.04 in 10.0 mi West 10.4 mph - N/A   Clear
11:54 AM 87.8 °F 90.4 °F 66.2 °F 49% 30.04 in 10.0 mi West 11.5 mph - N/A   Clear
12:15 PM 89.6 °F 91.1 °F 64.4 °F 43% 30.04 in 10.0 mi West 9.2 mph - N/A   Clear
12:35 PM 89.6 °F 91.1 °F 64.4 °F 43% 30.04 in 10.0 mi West 8.1 mph 17.3 mph N/A   Clear
12:54 PM 91.4 °F 93.2 °F 64.4 °F 41% 30.04 in 10.0 mi West 9.2 mph 17.3 mph N/A   Clear
1:15 PM 91.4 °F 92.1 °F 62.6 °F 38% 30.04 in 10.0 mi West 9.2 mph - N/A   Clear
1:34 PM 91.4 °F 92.1 °F 62.6 °F 38% 30.03 in 10.0 mi WNW 9.2 mph - N/A   Clear
1:55 PM 93.2 °F 94.1 °F 62.6 °F 36% 30.03 in 10.0 mi West 9.2 mph - N/A   Clear
2:15 PM 93.2 °F 94.1 °F 62.6 °F 36% 30.03 in 10.0 mi West 12.7 mph - N/A   Clear
2:34 PM 93.2 °F 94.1 °F 62.6 °F 36% 30.03 in 10.0 mi WSW 15.0 mph 18.4 mph N/A   Clear
2:55 PM 93.2 °F 94.1 °F 62.6 °F 36% 30.03 in 10.0 mi West 10.4 mph 17.3 mph N/A   Clear
3:15 PM 93.2 °F 94.1 °F 62.6 °F 36% 30.02 in 10.0 mi WSW 15.0 mph 20.7 mph N/A   Clear
3:34 PM 93.2 °F 93.3 °F 60.8 °F 34% 30.02 in 10.0 mi West 13.8 mph 23.0 mph N/A   Clear
3:55 PM 93.2 °F 93.3 °F 60.8 °F 34% 30.02 in 10.0 mi WSW 13.8 mph 18.4 mph N/A   Clear
4:15 PM 93.2 °F 93.3 °F 60.8 °F 34% 30.01 in 10.0 mi WSW 16.1 mph 23.0 mph N/A   Clear
4:34 PM 93.2 °F 94.1 °F 62.6 °F 36% 30.01 in 10.0 mi WSW 12.7 mph 16.1 mph N/A   Clear
4:54 PM 93.2 °F 94.1 °F 62.6 °F 36% 30.01 in 10.0 mi West 9.2 mph 19.6 mph N/A   Clear
5:14 PM 93.2 °F 94.1 °F 62.6 °F 36% 30.01 in 10.0 mi SW 10.4 mph 18.4 mph N/A   Clear
5:35 PM 91.4 °F 92.1 °F 62.6 °F 38% 30.00 in 10.0 mi WSW 10.4 mph - N/A   Clear
5:54 PM 91.4 °F 92.1 °F 62.6 °F 38% 30.00 in 10.0 mi WSW 11.5 mph 16.1 mph N/A   Clear
6:15 PM 91.4 °F 92.1 °F 62.6 °F 38% 30.00 in 10.0 mi WSW 12.7 mph - N/A   Clear
6:35 PM 91.4 °F 92.1 °F 62.6 °F 38% 30.00 in 10.0 mi WSW 9.2 mph - N/A   Clear
6:54 PM 89.6 °F 90.1 °F 62.6 °F 40% 30.01 in 10.0 mi WSW 9.2 mph - N/A   Clear
7:15 PM 89.6 °F 90.1 °F 62.6 °F 40% 30.01 in 10.0 mi SW 6.9 mph - N/A   Clear
7:35 PM 87.8 °F 88.5 °F 62.6 °F 43% 30.02 in 10.0 mi SW 6.9 mph - N/A   Clear
7:54 PM 84.2 °F 85.0 °F 62.6 °F 48% 30.02 in 10.0 mi SW 3.5 mph - N/A   Clear
8:15 PM 84.2 °F 85.0 °F 62.6 °F 48% 30.03 in 10.0 mi SSW 3.5 mph - N/A   Clear
8:35 PM 82.4 °F 83.4 °F 62.6 °F 51% 30.03 in 10.0 mi SSW 3.5 mph - N/A   Clear
8:54 PM 82.4 °F 83.4 °F 62.6 °F 51% 30.04 in 10.0 mi SSW 3.5 mph - N/A   Clear
9:15 PM 80.6 °F 81.8 °F 62.6 °F 54% 30.04 in 10.0 mi Calm Calm - N/A   Clear
9:35 PM 78.8 °F - 62.6 °F 57% 30.04 in 10.0 mi South 4.6 mph - N/A   Clear
9:54 PM 78.8 °F - 62.6 °F 57% 30.04 in 10.0 mi Calm Calm - N/A   Clear
10:15 PM 78.8 °F - 62.6 °F 57% 30.04 in 10.0 mi SSW 3.5 mph - N/A   Clear
10:35 PM 77.0 °F - 64.4 °F 65% 30.05 in 10.0 mi SSW 5.8 mph - N/A   Clear
10:54 PM 78.8 °F - 64.4 °F 61% 30.05 in 10.0 mi SW 6.9 mph - N/A   Clear
11:15 PM 78.8 °F - 64.4 °F 61% 30.04 in 10.0 mi SSW 6.9 mph - N/A   Clear
11:34 PM 78.8 °F - 64.4 °F 61% 30.05 in 10.0 mi SW 8.1 mph - N/A   Clear
11:55 PM 78.8 °F - 64.4 °F 61% 30.05 in 10.0 mi SW 10.4 mph - N/A   Clear